LROD Weather Reports


Display with metric or nautical units.
time (UTC)temp
F
wind
direction
speed
MPH
gust
MPH
rain 1hr
in
rain 24hr
in
rain mn
in
humidity
%
barometer
mb
20260507050329 59 100 6.0 0.0 0.00 0.00 0.00 63 1013.0
20260507044826 57 150 11.0 0.0 0.00 0.00 0.00 67 1012.0
20260507043329 57 150 11.0 0.0 0.00 0.00 0.00 67 1012.0
20260507041829 59 100 7.0 0.0 0.00 0.00 0.00 63 1012.0
20260507040329 59 100 7.0 0.0 0.00 0.00 0.00 63 1012.0
20260507034826 57 90 7.0 0.0 0.00 0.00 0.00 67 1012.0
20260507033328 57 90 7.0 0.0 0.00 0.00 0.00 67 1012.0
20260507031829 59 110 5.0 0.0 0.00 0.00 0.00 63 1012.0
20260507030329 59 110 5.0 0.0 0.00 0.00 0.00 63 1012.0
20260507024829 57 90 7.0 0.0 0.00 0.00 0.00 67 1012.0
20260507023329 57 90 7.0 0.0 0.00 0.00 0.00 67 1012.0
20260507021829 57 130 6.0 0.0 0.00 0.00 0.00 67 1012.0
20260507020329 57 140 6.0 0.0 0.00 0.00 0.00 67 1012.0
20260507014829 59 2.0 0.0 0.00 0.00 0.00 63 1012.0
20260507013329 59 2.0 0.0 0.00 0.00 0.00 63 1012.0
20260507011829 59 210 7.0 0.0 0.00 0.00 0.00 63 1012.0
20260507010329 59 210 7.0 0.0 0.00 0.00 0.00 63 1012.0
20260507004829 59 100 10.0 0.0 0.00 0.00 0.00 68 1011.0
20260507003329 59 100 10.0 0.0 0.00 0.00 0.00 68 1011.0
20260507001829 59 100 9.0 0.0 0.00 0.00 0.00 68 1011.0
20260507000329 59 100 9.0 0.0 0.00 0.00 0.00 68 1011.0
20260506234829 59 100 9.0 0.0 0.00 0.00 0.00 68 1011.0
20260506233329 59 100 9.0 0.0 0.00 0.00 0.00 68 1011.0
20260506231830 59 100 8.0 0.0 0.00 0.00 0.00 68 1011.0
20260506230329 59 100 8.0 0.0 0.00 0.00 0.00 68 1011.0
20260506224825 61 100 9.0 0.0 0.00 0.00 0.00 63 1011.0
20260506223329 61 100 9.0 0.0 0.00 0.00 0.00 63 1011.0
20260506221829 61 110 7.0 0.0 0.00 0.00 0.00 63 1011.0
20260506220328 61 110 7.0 0.0 0.00 0.00 0.00 63 1011.0
20260506214845 63 100 8.0 0.0 0.00 0.00 0.00 59 1011.0
20260506213329 63 100 8.0 0.0 0.00 0.00 0.00 59 1011.0
20260506211826 63 110 7.0 0.0 0.00 0.00 0.00 59 1011.0
20260506210329 63 110 7.0 0.0 0.00 0.00 0.00 59 1011.0
20260506204830 64 140 6.0 0.0 0.00 0.00 0.00 52 1011.0
20260506203329 64 140 6.0 0.0 0.00 0.00 0.00 52 1011.0
20260506201826 64 140 6.0 0.0 0.00 0.00 0.00 52 1011.0
20260506200329 64 140 6.0 0.0 0.00 0.00 0.00 52 1011.0
20260506194848 64 160 7.0 0.0 0.00 0.00 0.00 52 1011.0
20260506193353 64 160 7.0 0.0 0.00 0.00 0.00 52 1011.0
20260506191830 66 150 7.0 0.0 0.00 0.00 0.00 49 1011.0
20260506190329 66 150 7.0 0.0 0.00 0.00 0.00 49 1011.0
20260506184834 64 190 5.0 0.0 0.00 0.00 0.00 52 1011.0
20260506183329 64 190 5.0 0.0 0.00 0.00 0.00 52 1011.0
20260506181829 68 180 6.0 0.0 0.00 0.00 0.00 46 1011.0
20260506180330 68 180 6.0 0.0 0.00 0.00 0.00 46 1011.0
20260506174829 72 200 5.0 0.0 0.00 0.00 0.00 41 1010.0
20260506173329 72 200 5.0 0.0 0.00 0.00 0.00 41 1010.0
20260506171829 75 220 7.0 0.0 0.00 0.00 0.00 36 1010.0
20260506170329 75 220 7.0 0.0 0.00 0.00 0.00 36 1010.0
20260506164829 77 230 13.0 0.0 0.00 0.00 0.00 34 1011.0
20260506163329 77 230 13.0 0.0 0.00 0.00 0.00 34 1011.0
20260506161829 77 240 11.0 0.0 0.00 0.00 0.00 36 1011.0
20260506160329 77 240 11.0 0.0 0.00 0.00 0.00 36 1011.0
20260506154830 77 210 10.0 0.0 0.00 0.00 0.00 34 1011.0
20260506153329 77 210 10.0 0.0 0.00 0.00 0.00 34 1011.0
20260506151829 79 230 13.0 0.0 0.00 0.00 0.00 32 1011.0
20260506150335 79 230 13.0 0.0 0.00 0.00 0.00 32 1011.0
20260506144829 77 240 14.0 0.0 0.00 0.00 0.00 36 1011.0
20260506143341 77 240 14.0 0.0 0.00 0.00 0.00 36 1011.0
20260506141829 77 240 14.0 0.0 0.00 0.00 0.00 36 1011.0
20260506140447 77 240 14.0 0.0 0.00 0.00 0.00 36 1011.0
20260506134854 79 210 14.0 0.0 0.00 0.00 0.00 34 1012.0
20260506133329 79 210 14.0 0.0 0.00 0.00 0.00 34 1012.0
20260506131829 77 210 13.0 0.0 0.00 0.00 0.00 34 1012.0
20260506130338 77 210 13.0 0.0 0.00 0.00 0.00 34 1012.0
20260506124830 79 220 14.0 0.0 0.00 0.00 0.00 34 1012.0
20260506123329 79 220 14.0 0.0 0.00 0.00 0.00 34 1012.0
20260506121829 77 210 14.0 0.0 0.00 0.00 0.00 34 1012.0
20260506120329 77 210 14.0 0.0 0.00 0.00 0.00 34 1012.0
20260506114829 75 210 14.0 0.0 0.00 0.00 0.00 36 1013.0
20260506113330 75 210 14.0 0.0 0.00 0.00 0.00 36 1013.0
20260506111829 75 210 11.0 0.0 0.00 0.00 0.00 39 1013.0
20260506110329 75 210 11.0 0.0 0.00 0.00 0.00 39 1013.0
20260506104829 75 220 14.0 0.0 0.00 0.00 0.00 39 1013.0
20260506103329 75 220 14.0 0.0 0.00 0.00 0.00 39 1013.0
20260506101829 73 220 16.0 0.0 0.00 0.00 0.00 41 1013.0
20260506100329 73 220 16.0 0.0 0.00 0.00 0.00 41 1013.0
20260506094829 73 220 15.0 0.0 0.00 0.00 0.00 41 1013.0
20260506093329 73 230 14.0 0.0 0.00 0.00 0.00 44 1013.0
20260506091829 73 220 13.0 0.0 0.00 0.00 0.00 41 1013.0
20260506090329 73 220 13.0 0.0 0.00 0.00 0.00 41 1013.0
20260506084829 72 200 13.0 0.0 0.00 0.00 0.00 44 1013.0
20260506083329 72 200 13.0 0.0 0.00 0.00 0.00 44 1013.0
20260506081826 70 200 15.0 0.0 0.00 0.00 0.00 46 1013.0
20260506080329 70 200 15.0 0.0 0.00 0.00 0.00 46 1013.0
20260506073329 68 210 17.0 0.0 0.00 0.00 0.00 46 1013.0
20260506071829 68 220 16.0 0.0 0.00 0.00 0.00 46 1013.0
20260506070329 68 220 16.0 0.0 0.00 0.00 0.00 46 1013.0
20260506061829 66 200 13.0 0.0 0.00 0.00 0.00 46 1013.0
20260506060331 66 200 13.0 0.0 0.00 0.00 0.00 46 1013.0